RH
65 69 73 72 68 69 67 62 59 59 58 56 56 58 61 61 60 58 55 53 52 49 46 44 40 38 40 43 45 48 54 56 56 57 56 55 53 51 50 52 54 55
68 69 74 76 72 71 72 68 62 60 60 58 56 57 60 61 59 57 54 51 49 47 46 46 43 40 41 44 44 45 48 50 50 52 54 53 52 50 49 50 52 54
70 69 73 79 76 72 73 74 69 63 62 61 60 59 60 61 60 58 55 50 46 45 45 46 45 44 43 45 45 44 45 46 46 48 49 49 49 49 48 48 50 52
70 70 75 80 80 77 75 76 73 68 64 63 63 62 62 63 62 60 57 53 46 43 44 46 46 46 46 47 46 45 44 43 43 45 45 45 45 45 47 49 49 49
71 71 75 81 83 81 79 77 75 72 69 65 65 64 64 64 65 63 60 56 49 43 42 44 47 47 48 49 49 49 46 44 43 43 43 43 43 42 44 47 49 48
70 70 73 79 84 84 81 79 77 74 72 69 66 65 65 64 66 66 63 59 54 46 41 41 44 46 48 49 50 52 51 49 46 44 43 43 42 41 42 45 46 46
69 70 72 77 82 86 87 84 80 76 73 72 68 66 68 66 66 68 66 62 58 52 46 42 42 44 47 49 49 51 53 53 51 49 47 46 45 42 41 42 45 44
71 71 72 72 76 84 88 87 84 79 76 75 71 67 68 69 69 69 69 66 62 58 52 46 43 43 45 47 48 49 52 53 54 54 52 51 49 46 44 43 43 43
73 74 72 70 75 83 86 86 86 84 78 76 74 69 69 71 73 73 72 70 66 63 60 54 48 44 43 44 46 48 50 51 52 55 56 55 53 51 49 46 42 40
76 76 73 72 76 79 82 86 89 86 81 78 77 72 69 71 74 74 73 73 70 67 66 63 56 50 46 43 44 46 48 49 50 53 55 56 56 54 52 50 45 40
79 79 75 76 81 80 80 86 90 88 84 80 78 75 70 69 73 74 73 74 72 68 68 68 64 60 54 48 45 44 45 48 49 50 52 54 55 55 53 53 50 45
82 82 79 86 94 90 85 89 91 90 87 82 78 76 72 70 72 75 75 75 73 69 68 69 69 67 63 58 54 48 45 44 45 48 50 52 52 54 54 54 54 51
83 85 87 94 100 96 91 90 91 91 90 84 78 77 75 74 75 77 77 76 74 72 70 70 71 69 67 66 63 59 53 48 45 44 46 49 50 52 53 55 55 53
82 85 91 96 96 94 92 91 92 93 91 85 79 78 78 78 79 81 79 77 77 76 74 74 74 72 70 68 68 67 64 60 55 50 46 45 46 48 50 52 51 50
84 85 88 91 91 91 91 91 93 95 94 89 84 82 81 81 82 83 82 80 78 78 76 76 76 75 73 72 70 71 71 70 67 63 57 51 46 44 45 47 48 48
84 85 85 86 88 89 90 89 90 93 93 92 89 87 86 85 86 86 84 82 80 79 78 77 75 75 74 73 72 72 73 74 73 71 68 63 57 52 49 47 47 47
82 85 86 88 89 90 90 90 90 91 92 92 89 88 87 86 86 85 85 84 81 79 78 78 77 75 74 74 73 73 74 75 74 73 71 70 69 66 61 56 52 50
79 83 85 89 90 89 88 89 90 91 93 92 90 88 87 87 87 85 84 83 82 78 77 78 78 76 75 75 75 75 75 75 75 74 73 73 73 73 71 67 64 61
78 81 81 81 83 85 85 85 86 88 89 91 91 90 89 89 90 88 85 83 82 80 79 80 78 76 76 76 75 75 76 76 76 76 76 76 76 76 76 75 73 72
74 78 78 77 78 80 82 83 85 85 86 88 88 88 88 88 89 90 87 83 82 81 81 82 80 77 77 76 75 75 75 76 77 79 80 80 79 79 78 77 76 75
69 72 73 74 75 75 78 81 84 84 84 85 86 85 85 86 87 86 84 82 82 82 83 82 81 79 78 75 75 76 75 76 79 82 83 82 80 80 80 77 75 75
64 68 69 71 72 74 76 78 82 85 85 86 87 86 87 88 87 85 84 83 83 84 85 85 82 80 78 76 77 77 77 79 81 82 81 80 81 82 81 78 76 75
60 64 66 68 70 72 75 77 80 83 85 86 87 88 88 88 88 87 85 84 85 85 85 84 82 79 78 78 79 80 82 83 84 83 82 82 83 83 83 80 78 76
60 60 61 64 66 68 72 75 78 79 81 83 85 86 86 86 87 86 86 85 86 86 85 83 82 80 80 81 81 83 85 85 86 85 84 83 84 83 82 81 79 77
59 58 57 58 61 63 66 71 74 76 76 78 80 81 83 84 85 85 87 87 87 87 86 85 84 83 83 84 84 85 86 86 87 86 86 86 87 83 81 80 78 77
55 56 54 54 56 59 61 65 69 73 74 75 74 75 76 79 83 85 85 86 86 86 87 87 87 87 86 85 85 86 87 87 88 89 89 89 89 86 83 81 79 78